Погода Верхний Уфалей

Погода Верхний Уфалей : погода сейчас, прогноз погоды и архив. Всё, что Вы хотите узнать о погоде Верхний Уфалей!

Поиск расширенной информации на нашем сайте:

Другие новости

Новости СМИ2

Главная страница сайта

Новости сайта

03.07.2017

Напоминаем, что на нашем специализированном сайте Метеоцентр.Азия вы можете получить высокодетализированные автоматические прогнозы погоды по пунктам России, СНГ и мира в авиационном формате (включающие направление и скорость ветра, видимость, явления погоды, количество и форму облачности, нижнюю и верхнюю границу облачности).


Погода Верхний Уфалей - сегодня

Время (UTC), дата Ветер
(°,м/с) 
Видим.   Явления Облачность Т
(°С)
Тd
(°С)
f(%) Тe
(°С)
Pmin
(гПа)
dP
(гПа)
Po
(мм)
O2
(г/м3)
Тmin Tmax R s Состояние
почвы
21 21.11.17 170 (Ю) 20000 м    8/0 средняя, верхняя 
[Ac trans|Ci sp]
-3.2 -5.5 84 -3  1019.9  -0.4  728  297           
00 22.11.17 тихо ()   20000 м    6/0 верхняя 
[Ci sp]
-5.8 -6.5 95 -6  1019.3  -1.1  727  300           
03 22.11.17 тихо ()   20000 м    3/0 средняя, верхняя 
[Ac trans|Ci sp]
-7.5 -8.3 94 -8  1019.3  -0.3  726  302  -7.5      равномерный
сухой снег
100% 
06 22.11.17 250 (З) 10 км    3/0 средняя 
[Ac trans]
-5.2 -6.7 89 -5  1018.7  -0.2  726  299  -8.5         
09 22.11.17 тихо ()   20000 м    4/0 средняя, верхняя 
[Ac trans|Ci fib]
-0.3 -4.3 74 -0  1017.3  -0.4  726  293           
12 22.11.17 110 (В) 20000 м    6/4 600 м средняя, верхняя 
[Sc|Ac trans|Ci fib]
-1.4 -4.7 78 -3  1017.6  0.1  726  295           
15 22.11.17 110 (В) 20000 м    9/6 600 м средняя, верхняя 
[Sc|Ac trans|Ci fib]
-0.5 -4.1 77 -2  1017.3  -0.2  726  293    +1.4       
18 22.11.17 тихо ()   20000 м    4/0 средняя, верхняя 
[Ac trans|Ci fib]
-2.9 -5.6 82 -3  1017.3  -0.3  726  296           
21 22.11.17 030 (СВ) 20000 м    3/0 верхняя 
[Ci fib]
-5.6 -6.7 92 -5  1017.5  -0.4  725  299           
00 23.11.17 тихо ()   20000 м    ясно 
-6.3 -7.1 94 -6  1017.2  -0.4  725  300           
03 23.11.17 тихо ()   20000 м    3/0 средняя 
[Ac trans]
-7 -7.8 94 -7  1017.7  0.4  725  301  -7.1      равномерный
мокрый или
старый снег
100% 
06 23.11.17 тихо ()   20000 м    4/0 средняя, верхняя 
[Ac trans|Ci fib]
-3.2 -5.6 83 -3  1017.3  0.3  726  296           
09 23.11.17 110 (В) 20000 м    3/0 верхняя 
[Ci fib]
+2.3 -4.3 62 +1  1016.5  0.2  726  290           
12 23.11.17 120 (ЮВ) 20000 м    6/0 средняя, верхняя 
[Ac trans|Ci fib]
+0.8 -4.9 66 -1  1017.2  0.4  726  292           
15 23.11.17 110 (В) 20000 м    4/0 средняя, верхняя 
[Ac trans|Ci fib]
-0.9 -4.6 76 -3  1017.8  0.3  726  294    +2.6       
18 23.11.17 130 (ЮВ) 20000 м    8/4 600 м средняя, верхняя 
[Sc|Ac trans|Ci fib]
-0.4 -5.5 68 -1  1017.2  -0.5  726  293           
21 23.11.17 тихо ()   20000 м    ясно 
-8.8 -9.9 92 -9  1018.7  -0.1  726  303           
00 24.11.17 тихо ()   20000 м    ясно 
-9.8 -10.6 94 -10  1018.6  -0.3  726  304           
03 24.11.17 140 (ЮВ) 20000 м    3/0 средняя 
[Ac trans]
-11.1 -12.2 92 -11  1019.1  0.2  726  306  -11.3      равномерный
мокрый или
старый снег
100% 
06 24.11.17 тихо ()   10 км    3/0 верхняя 
[Ci fib]
-7.7 -8.7 93 -8  1019  0.6  726  302  -11.5         
09 24.11.17 тихо ()   10 км    8/0 средняя, верхняя 
[Ac trans|Ci sp]
-2.9 -6.8 74 -3  1017.5  -0.5  726  296           
12 24.11.17 тихо ()   10 км    4/0 средняя, верхняя 
[Ac trans|Ci sp]
-4.2 -6.5 84 -4  1018.2  0.3  726  298           
15 24.11.17 тихо ()   10 км    4/0 средняя, верхняя 
[Ac trans|Ci sp]
-6 -7 93 -6  1018.9  0.4  726  300    -1.8       
18 24.11.17 тихо ()   10 км    3/0 верхняя 
[Ci sp]
-7.4 -8.5 92 -7  1020.2  0.9  727  302           
21 24.11.17 360 (С) 10 км    8/4 600 м средняя, верхняя 
[Sc|Ac trans|Ci sp]
-5.6 -6.8 91 -5  1020.9  1.1  728  300           
Время (UTC), дата Ветер
(°,м/с) 
Видим.   Явления Облачность Т
(°С)
Тd
(°С)
f(%) Тe
(°С)
Pmin
(гПа)
dP
(гПа)
Po
(мм)
O2
(г/м3)
Тmin Tmax R s Состояние
почвы

Для получения пояснительной информации подведите курсор к названию столбца.

ПОГОДА Верхний Уфалей - архив

Всё, что Вы хотите узнать о погоде Верхний Уфалей - удобно и подробно!

Выберите нужную дату (начиная с 1 января 2015* года) и нажмите кнопку "Найти".
Будут отображены архивные сводки погоды по пункту Верхний Уфалей, начиная с указанной даты.


Отображать данные в формате CSV (для использования в таблицах Excel)


Внимание! Наш архив погоды предназначен исключительно для личного некоммерческого использования в познавательных целях. Если Вам необходимы официальные справки о состоянии погоды (для производственных, юридических, коммерческих и т.п. целей), обращайтесь в органы Росгидромета.

*Примечание: данная дата относится к архиву по метеостанциям СССР (Россия, СНГ, Балтия).
Архив по метеостанциям Зарубежной Европы и Азии (кроме Китая) хранится 10 дней, по другим регионам земного шара (Китай, Африка, Америка, Австралия, Океания) - 1 день.

Верхний Уфалей - район местоположения метеостанции


Название, широта, долгота, высота метеостанции:
Верхний Уфалей 56.1°ш. 60.3°д. 399 м над ур. моря [Российская Федерация]

Дополнительная информация

В oтличие oт бoльшинства пoгoдных сайтoв мы публикуем пoдрoбную метеoинфoрмацию в детальнoм прoфессиoнальнoм фoрмате.

Характеристики температуры и влажнoсти вoздуха измеряются на высoте 2 м в тени вдали oт зданий и деревьев.
Скoрoсть ветра измеряется на высoте 10 м (на урoвне рoста челoвека скoрoсть ветра ниже в 1.5-2 раза). Если метеoстанция нахoдится в гoрoде или в лесу, тo скoрoсть ветра занижена на 2-4 м/с пo сравнению с oткрытым местoм. Скoрoсть ветра над акватoриями крупных рек и oзёр, а также на вершинах хoлмoв на 2-5 м/с выше, чем в oбычных услoвиях.
Атмoсфернoе давление в разных тoчках местнoсти мoжет значительнo oтличаться oт давления на метеoстанции, в зависимoсти oт услoвий рельефа (при пoдъёме на 10 м давление пoнижается примернo на 1 мм рт.ст.).